Location: Wildlife_Club
(35.6000°N, 81.4330°W)
Time: 01:48:21
(UTC-04:00)

Vanguard 2 Rocket - Pass Details

Date: 25 June 2019
Orbit: 553 x 3327 km, 32.9° (Epoch: 16 August)

Event Time Altitude Azimuth Distance (km) Brightness Sun altitude
Rises 01:13:08 0° 273° (W) 4,426 10.5 -30.9°
Reaches altitude 10° 01:15:34 10° 272° (W) 3,731 10.1 -30.9°
Maximum altitude 01:25:57 75° 189° (S) 2,323 8.6 -31.0°
Drops below altitude 10° 01:43:50 10° 108° (ESE) 6,042 10.9 -30.9°
Sets 01:49:01 0° 107° (ESE) 7,233 11.4 -30.8°
